Вернуться в каталог

DELTA 1 DEB

АктивенSSO
NORAD 13567·DEBRIS·🇺🇸 United States

Запущен Mar 5, 1978 с Vandenberg Space Force Base

Loading…

Ближайшие Пролёты (ближайшие 24 часа)

TLE

СвежийSource: Space-Track

Эпоха: Sep 14, 2026, 14:46 UTC

1 13567U 78026FE  26257.61597126  .00002952  00000-0  15382-2 0  9993
2 13567  98.8240  42.8352 0181548 170.3396 321.7916 14.07172821223666

Отслеживайте DELTA 1 DEB в реальном времени с AllMySat

Download on the App Store